Location: Home
(42.5358°N, 72.7383°W)
Time: 18:46:55
(UTC-05:00)

Explorer 7 - Pass Details

Date: 05 December 2021
Orbit: 483 x 674 km, 50.3° (Epoch: 23 January)

Event Time Altitude Azimuth Distance (km) Brightness Sun altitude
Rises 11:48:24 0° 292° (WNW) 2,602 10.1 25.0°
Reaches altitude 10° 11:50:58 10° 276° (W) 1,692 9.4 25.0°
Maximum altitude 11:53:55 21° 225° (SW) 1,122 9.4 24.9°
Drops below altitude 10° 11:56:49 10° 174° (S) 1,655 11.1 24.9°
Sets 11:59:18 0° 158° (SSE) 2,528 11.2 24.9°
